CET,Max TemperatureF,Mean TemperatureF,Min TemperatureF,Max Dew PointF,MeanDew PointF,Min DewpointF,Max Humidity, Mean Humidity, Min Humidity, Max Sea Level PressureIn, Mean Sea Level PressureIn, Min Sea Level PressureIn, Max VisibilityMiles, Mean VisibilityMiles, Min VisibilityMiles, Max Wind SpeedMPH, Mean Wind SpeedMPH, Max Gust SpeedMPH,PrecipitationIn, CloudCover, Events, WindDirDegrees
2012-12-1,51,46,42,48,44,37,100,88,76,29.83,29.78,29.68,6,6,6,6,4,,0.00,4,,208
2012-12-2,48,44,41,45,42,39,100,90,81,29.83,29.75,29.71,6,6,2,13,6,,0.00,4,Rain,258
2012-12-3,48,42,35,41,32,25,93,70,40,30.01,29.92,29.71,6,6,6,25,12,38,0.00,5,Rain,286
2012-12-4,55,45,35,46,37,23,93,75,49,29.95,29.67,29.50,6,6,5,16,7,,0.00,5,Rain,238
2012-12-5,50,42,33,41,36,32,93,78,66,29.71,29.61,29.56,6,6,6,8,5,,0.00,3,Rain-Thunderstorm,229
2012-12-6,44,40,33,37,36,32,93,86,76,29.92,29.81,29.68,6,6,6,16,7,,0.00,3,Rain-Thunderstorm,190
2012-12-7,46,40,33,41,33,30,93,74,53,29.95,29.81,29.56,6,6,6,9,5,,0.00,3,Rain,170
2012-12-8,42,38,33,41,33,30,100,83,70,29.89,29.64,29.50,6,6,1,25,15,39,0.00,6,Rain-Snow,314
2012-12-9,46,39,32,32,25,18,80,54,32,30.06,30.02,29.92,6,6,6,29,21,43,0.00,3,Rain,2
2012-12-10,53,43,33,43,32,23,100,67,47,29.98,29.78,29.68,6,6,4,13,7,,0.00,4,Rain,232
2012-12-11,48,42,35,36,31,27,93,71,49,30.06,29.90,29.77,6,6,2,20,12,,0.00,3,Rain-Snow-Thunderstorm,249
2012-12-12,42,37,32,37,34,30,100,91,76,30.21,30.14,30.06,6,6,6,15,6,,0.00,4,Rain-Thunderstorm,202
2012-12-13,41,32,24,32,29,23,100,83,65,30.21,30.19,30.18,6,6,6,8,4,,0.00,4,,203
2012-12-14,41,37,33,37,35,30,100,92,75,30.24,30.09,30.04,6,3,1,5,2,,0.00,5,Fog-Rain,239
2012-12-15,60,48,37,50,44,37,100,83,59,30.04,29.94,29.86,6,6,2,20,5,,0.00,5,Rain,231
2012-12-16,50,44,39,46,41,37,100,92,87,29.98,29.95,29.92,6,4,0,8,3,,0.00,3,Fog,220
2012-12-17,44,42,39,45,42,39,100,99,93,29.92,29.85,29.80,6,3,0,13,5,,0.00,5,Fog-Rain,261
2012-12-18,42,40,39,41,39,36,100,91,81,29.95,29.86,29.83,6,4,2,14,6,,0.00,3,,294
2012-12-19,46,42,35,41,37,32,100,86,76,30.18,30.08,29.95,6,6,6,16,9,,0.00,3,,295
2012-12-20,48,40,32,39,36,30,93,86,66,30.18,30.12,30.01,6,6,6,5,3,,0.00,4,,200
2012-12-21,41,40,39,39,38,36,100,93,87,30.01,29.94,29.92,6,4,1,8,3,,0.00,6,Rain,253
2012-12-22,42,38,35,39,37,36,100,92,81,30.18,30.12,30.01,6,4,2,13,6,,0.00,4,,266
2012-12-23,48,39,30,45,38,30,100,96,87,30.18,30.11,30.06,6,4,2,6,3,,0.00,2,Fog,206
2012-12-24,44,38,33,45,40,34,100,100,100,30.24,30.20,30.18,2,0,0,6,4,,0.00,1,Fog,206
2012-12-25,57,45,33,54,43,34,100,98,82,30.21,30.13,30.06,6,4,0,6,3,,0.00,1,Fog,188
2012-12-26,57,48,39,52,45,39,100,95,82,30.09,30.01,29.95,6,4,1,15,4,,0.00,5,Fog-Rain,253
2012-12-27,53,46,42,48,44,41,100,97,72,30.15,30.08,29.98,6,2,0,10,6,,0.00,5,Fog,243
2012-12-28,53,46,39,46,41,37,93,89,72,30.36,30.14,29.95,6,6,2,17,7,,0.00,4,Rain,288
2012-12-29,51,42,33,41,36,30,87,73,58,30.36,30.30,30.24,,,,15,9,,0.00,,,301
2012-12-30,46,38,30,37,32,27,100,84,57,30.30,30.24,30.21,,,,6,4,,0.00,,,195
2012-12-31,46,38,30,39,33,28,100,89,70,30.33,30.27,30.18,6,5,4,8,4,,0.00,,,216